• In Österreich
  • Länderverzeichnis
  • Für 7 Tage
  • Wassertemperatur
  • Satellitenkarten
  • Wetterkarte
  • News
  • Widgets
  • user-avatar
    Anmelden

    Stündliche Wetter Molepolole

    Heute, 19 Oktober, Freitag

    Zeit Temperatur Niederschläge Wind Luftdruck Luftfeuchtigkeit
    00:00 +25°C° 0 mm 3 m/S 664 mmHg 43%
    01:00 +24°C° 0 mm 3 m/S 664 mmHg 47%
    02:00 +22°C° 0 mm 3 m/S 664 mmHg 52%
    03:00 +21°C° 0 mm 3 m/S 664 mmHg 55%
    04:00 +20°C° 0 mm 4 m/S 664 mmHg 59%
    05:00 +19°C° 0 mm 4 m/S 664 mmHg 62%
    06:00 +20°C° 0 mm 4 m/S 664 mmHg 61%
    07:00 +20°C° 0 mm 5 m/S 665 mmHg 59%
    08:00 +21°C° 0 mm 5 m/S 665 mmHg 58%
    09:00 +23°C° 0 mm 5 m/S 666 mmHg 50%
    10:00 +27°C° 0 mm 5 m/S 666 mmHg 42%
    11:00 +29°C° 0 mm 5 m/S 666 mmHg 35%
    12:00 +30°C° 0 mm 4 m/S 666 mmHg 30%
    13:00 +33°C° 0 mm 4 m/S 666 mmHg 26%
    14:00 +34°C° 0 mm 3 m/S 665 mmHg 21%
    15:00 +34°C° 0 mm 3 m/S 665 mmHg 20%
    16:00 +34°C° 0 mm 2 m/S 664 mmHg 19%
    17:00 +34°C° 0 mm 2 m/S 664 mmHg 18%
    18:00 +32°C° 0 mm 2 m/S 664 mmHg 20%
    19:00 +31°C° 0 mm 3 m/S 664 mmHg 22%
    20:00 +29°C° 0 mm 3 m/S 664 mmHg 24%
    21:00 +28°C° 0 mm 3 m/S 664 mmHg 25%
    22:00 +28°C° 0 mm 3 m/S 665 mmHg 27%
    23:00 +27°C° 0 mm 3 m/S 665 mmHg 28%

    Morgen, 20 Oktober, Samstag

    Zeit Temperatur Niederschläge Wind Luftdruck Luftfeuchtigkeit
    00:00 +26°C° 0 mm 3 m/S 664 mmHg 31%
    01:00 +26°C° 0 mm 3 m/S 664 mmHg 33%
    02:00 +25°C° 0 mm 3 m/S 664 mmHg 35%
    03:00 +24°C° 0 mm 3 m/S 663 mmHg 37%
    04:00 +24°C° 0 mm 3 m/S 663 mmHg 39%
    05:00 +23°C° 0 mm 2 m/S 663 mmHg 41%
    06:00 +24°C° 0 mm 3 m/S 664 mmHg 39%
    07:00 +26°C° 0 mm 4 m/S 665 mmHg 36%
    08:00 +27°C° 0 mm 4 m/S 666 mmHg 33%
    09:00 +29°C° 0 mm 4 m/S 666 mmHg 30%
    10:00 +32°C° 0 mm 4 m/S 667 mmHg 26%
    11:00 +34°C° 0 mm 4 m/S 667 mmHg 22%
    12:00 +35°C° 0 mm 4 m/S 667 mmHg 20%
    13:00 +36°C° 0 mm 4 m/S 666 mmHg 17%
    14:00 +37°C° 0 mm 4 m/S 666 mmHg 15%
    15:00 +37°C° 0 mm 4 m/S 665 mmHg 15%
    16:00 +36°C° 0 mm 4 m/S 665 mmHg 15%
    17:00 +36°C° 0 mm 4 m/S 665 mmHg 15%
    18:00 +34°C° 0 mm 4 m/S 665 mmHg 18%
    19:00 +33°C° 0 mm 5 m/S 665 mmHg 21%
    20:00 +32°C° 0 mm 5 m/S 666 mmHg 24%
    21:00 +29°C° 0.1 mm 6 m/S 666 mmHg 29%
    22:00 +28°C° 0.1 mm 7 m/S 667 mmHg 35%
    23:00 +26°C° 0.1 mm 8 m/S 667 mmHg 40%

    übermorgen, 21 Oktober, Sonntag

    Zeit Temperatur Niederschläge Wind Luftdruck Luftfeuchtigkeit
    00:00 +23°C° 0.1 mm 8 m/S 667 mmHg 47%
    01:00 +21°C° 0.1 mm 9 m/S 667 mmHg 53%
    02:00 +18°C° 0.1 mm 9 m/S 667 mmHg 59%
    03:00 +17°C° 0.3 mm 9 m/S 667 mmHg 60%
    04:00 +17°C° 0.3 mm 10 m/S 667 mmHg 61%
    05:00 +16°C° 0.3 mm 10 m/S 667 mmHg 63%
    06:00 +16°C° 0.1 mm 10 m/S 667 mmHg 61%
    07:00 +17°C° 0.1 mm 9 m/S 668 mmHg 59%
    08:00 +17°C° 0.1 mm 9 m/S 669 mmHg 57%
    09:00 +18°C° 0.1 mm 9 m/S 669 mmHg 54%
    10:00 +20°C° 0.1 mm 8 m/S 669 mmHg 50%
    11:00 +21°C° 0.1 mm 8 m/S 670 mmHg 47%
    12:00 +22°C° 0.1 mm 8 m/S 670 mmHg 44%
    13:00 +23°C° 0.1 mm 7 m/S 669 mmHg 42%
    14:00 +24°C° 0.1 mm 7 m/S 669 mmHg 40%
    15:00 +23°C° 0.1 mm 7 m/S 669 mmHg 43%
    16:00 +22°C° 0.1 mm 8 m/S 668 mmHg 45%
    17:00 +21°C° 0.1 mm 8 m/S 667 mmHg 48%
    18:00 +20°C° 0 mm 8 m/S 667 mmHg 49%
    19:00 +20°C° 0 mm 8 m/S 667 mmHg 51%
    20:00 +18°C° 0 mm 8 m/S 667 mmHg 52%
    21:00 +18°C° 0 mm 8 m/S 667 mmHg 52%
    22:00 +18°C° 0 mm 8 m/S 668 mmHg 52%
    23:00 +17°C° 0 mm 8 m/S 668 mmHg 51%

    22 Oktober, Montag

    Zeit Temperatur Niederschläge Wind Luftdruck Luftfeuchtigkeit
    00:00 +17°C° 0 mm 8 m/S 668 mmHg 49%
    01:00 +17°C° 0 mm 8 m/S 668 mmHg 47%
    02:00 +16°C° 0 mm 8 m/S 668 mmHg 45%
    03:00 +15°C° 0.2 mm 8 m/S 668 mmHg 49%
    04:00 +15°C° 0.2 mm 7 m/S 668 mmHg 53%
    05:00 +14°C° 0.2 mm 7 m/S 669 mmHg 56%
    06:00 +14°C° 1.1 mm 7 m/S 669 mmHg 60%
    07:00 +12°C° 1.1 mm 8 m/S 669 mmHg 63%
    08:00 +11°C° 1.1 mm 8 m/S 669 mmHg 66%
    09:00 +11°C° 0.9 mm 8 m/S 669 mmHg 68%
    10:00 +11°C° 0.9 mm 8 m/S 669 mmHg 69%
    11:00 +11°C° 0.9 mm 8 m/S 669 mmHg 70%
    12:00 +12°C° 0.1 mm 8 m/S 668 mmHg 67%
    13:00 +13°C° 0.1 mm 9 m/S 668 mmHg 65%
    14:00 +13°C° 0.1 mm 9 m/S 667 mmHg 62%
    15:00 +15°C° 0.2 mm 8 m/S 667 mmHg 62%
    16:00 +15°C° 0.2 mm 8 m/S 667 mmHg 62%
    17:00 +15°C° 0.2 mm 8 m/S 667 mmHg 62%
    18:00 +14°C° 0.1 mm 7 m/S 667 mmHg 65%
    19:00 +12°C° 0.1 mm 7 m/S 667 mmHg 68%
    20:00 +11°C° 0.1 mm 7 m/S 668 mmHg 71%
    21:00 +11°C° 0.1 mm 7 m/S 668 mmHg 71%
    22:00 +11°C° 0.1 mm 7 m/S 668 mmHg 72%
    23:00 +11°C° 0.1 mm 7 m/S 668 mmHg 72%

    23 Oktober, Dienstag

    Zeit Temperatur Niederschläge Wind Luftdruck Luftfeuchtigkeit
    00:00 +11°C° 0.1 mm 6 m/S 667 mmHg 72%
    01:00 +12°C° 0.1 mm 5 m/S 667 mmHg 72%
    02:00 +12°C° 0.1 mm 4 m/S 667 mmHg 71%
    03:00 +12°C° 0.2 mm 5 m/S 667 mmHg 72%
    04:00 +12°C° 0.2 mm 5 m/S 667 mmHg 72%
    05:00 +11°C° 0.2 mm 6 m/S 667 mmHg 73%
    06:00 +13°C° 0 mm 6 m/S 667 mmHg 70%
    07:00 +14°C° 0 mm 6 m/S 668 mmHg 66%
    08:00 +14°C° 0 mm 7 m/S 668 mmHg 63%
    09:00 +16°C° 0 mm 7 m/S 668 mmHg 57%
    10:00 +18°C° 0 mm 7 m/S 668 mmHg 52%
    11:00 +21°C° 0 mm 7 m/S 668 mmHg 47%
    12:00 +22°C° 0 mm 7 m/S 668 mmHg 43%
    13:00 +24°C° 0 mm 6 m/S 667 mmHg 40%
    14:00 +26°C° 0 mm 6 m/S 667 mmHg 36%
    15:00 +26°C° 0 mm 6 m/S 667 mmHg 36%
    16:00 +26°C° 0 mm 5 m/S 667 mmHg 36%
    17:00 +27°C° 0 mm 5 m/S 666 mmHg 35%
    18:00 +25°C° 0 mm 5 m/S 666 mmHg 39%
    19:00 +23°C° 0 mm 6 m/S 667 mmHg 42%
    20:00 +22°C° 0 mm 6 m/S 667 mmHg 45%
    21:00 +21°C° 0 mm 6 m/S 667 mmHg 47%
    22:00 +21°C° 0 mm 7 m/S 667 mmHg 49%
    23:00 +20°C° 0 mm 7 m/S 667 mmHg 51%

    24 Oktober, Mittwoch

    Zeit Temperatur Niederschläge Wind Luftdruck Luftfeuchtigkeit
    00:00 +19°C° 0.4 mm 6 m/S 667 mmHg 55%
    01:00 +17°C° 0.4 mm 6 m/S 666 mmHg 59%
    02:00 +16°C° 0.4 mm 6 m/S 666 mmHg 63%
    03:00 +16°C° 0.2 mm 6 m/S 666 mmHg 64%
    04:00 +16°C° 0.2 mm 6 m/S 666 mmHg 65%
    05:00 +15°C° 0.2 mm 5 m/S 666 mmHg 66%
    06:00 +16°C° 0 mm 6 m/S 666 mmHg 62%
    07:00 +17°C° 0 mm 6 m/S 667 mmHg 59%
    08:00 +19°C° 0 mm 6 m/S 668 mmHg 55%
    09:00 +21°C° 0 mm 6 m/S 668 mmHg 50%
    10:00 +23°C° 0 mm 6 m/S 668 mmHg 44%
    11:00 +26°C° 0 mm 6 m/S 668 mmHg 39%
    12:00 +27°C° 0 mm 5 m/S 668 mmHg 36%
    13:00 +28°C° 0 mm 5 m/S 667 mmHg 34%
    14:00 +29°C° 0 mm 4 m/S 667 mmHg 31%
    15:00 +29°C° 0 mm 4 m/S 667 mmHg 31%
    16:00 +29°C° 0 mm 4 m/S 667 mmHg 31%
    17:00 +29°C° 0 mm 3 m/S 667 mmHg 31%
    18:00 +28°C° 0.2 mm 3 m/S 667 mmHg 34%
    19:00 +27°C° 0.2 mm 3 m/S 667 mmHg 37%
    20:00 +26°C° 0.2 mm 3 m/S 667 mmHg 40%
    21:00 +26°C° 0.1 mm 3 m/S 667 mmHg 41%
    22:00 +25°C° 0.1 mm 3 m/S 667 mmHg 42%
    23:00 +25°C° 0.1 mm 3 m/S 667 mmHg 43%
    Mehr zeigen